Location: Milton Keynes
(52.0316°N, 0.7531°W)
Time: 01:16:48
(UTC+00:00)

ISS - Pass Details

Date: 31 January 2019
Orbit: 403 x 411 km, 51.6° (Epoch: 20 February)

Event Time Altitude Azimuth Distance (km) Brightness Sun altitude
Rises 18:43:53 0° 270° (W) 2,337 1.7 -17.7°
Reaches altitude 10° 18:45:58 10° 270° (W) 1,477 0.3 -18.1°
Maximum altitude 18:49:17 86° 182° (S) 417 -3.9 -18.6°
Enters shadow 18:49:38 69° 104° (ESE) 443 -3.9 -18.6°
